Regional Weather Roundup
Issued by NWS

Home | Current Version | Previous Version | Text Only | Print | Product List | Glossary On
Versions: 1 2 3 4 5 6 7 8 9 10 11 12 13 14 15 16 17 18 19 20 21 22 23 24 25 26 27 28 29 30 31 32 33 34 35 36 37 38 39 40 41 42 43 44 45 46 47 48 49 50
000
ASUS43 KLOT 140508
RWRIL

ILLINOIS REGIONAL WEATHER ROUNDUP
NATIONAL WEATHER SERVICE CHICAGO/ROMEOVILLE IL
1100 PM CST WED DEC 13 2017

NOTE: "FAIR" INDICATES FEW OR NO CLOUDS BELOW 12,000 FEET WITH NO
SIGNIFICANT WEATHER AND/OR OBSTRUCTIONS TO VISIBILITY.

* THESE STATIONS ARE NOT UNDER NWS QUALITY CONTROL. THEY ALSO MAY NOT
  REPORT WEATHER SUCH AS PRECIPITATION OR FOG.

ILZ001-002-007-009-015-016-024-140600-
NORTHWEST ILLINOIS

CITY           SKY/WX    TMP DP  RH WIND       PRES   REMARKS
MOLINE         CLOUDY    28  17  63 NW12      29.87R WCI  18
STERLING*      MOCLDY    25  18  74 N14       29.85  WCI  13
SAVANNA*       PTCLDY    24  15  70 N9        29.87R WCI  14
$$

ILZ003-004-008-010-011-017-018-140600-
NORTH CENTRAL ILLINOIS

CITY           SKY/WX    TMP DP  RH WIND       PRES   REMARKS
ROCKFORD       CLOUDY    25  17  72 N20       29.84R WCI  11
FREEPORT*      CLOUDY    24  17  75 N12G22    29.85R WCI  13
ROCHELLE*      CLOUDY    24  19  80 NW13      29.82R WCI  12
DE KALB*       PTCLDY    24  20  83 N14G20    29.78R WCI  12
PERU*          CLOUDY    26  17  70 NW15      29.83R WCI  13
$$

ILZ005-006-012>014-019>023-140600-
NORTHEAST ILLINOIS

CITY           SKY/WX    TMP DP  RH WIND       PRES   REMARKS
CHICAGO-OHARE  FLURRIES  28  20  71 N15G24    29.74R WCI  16
CHICAGO-MIDWAY FLURRIES  30  21  69 N17       29.74R WCI  18
AURORA         CLOUDY    26  20  77 NW14      29.78R WCI  14
LANSING*       CLOUDY    30  22  73 N18G29    29.72R WCI  18
JOLIET*        CLOUDY    30  21  70 N16G23    29.77R WCI  19
WAUKEGAN       LGT SNOW  26  21  81 N13G18    29.75R WCI  15
DUPAGE AIRPORT CLOUDY    27  19  72 N17G30    29.75R WCI  14
KANKAKEE*      CLOUDY    29  20  69 NW14G21   29.76R WCI  18
WHEELING       FLURRIES  28  22  78 N12       29.76R WCI  18
MORRIS*        CLOUDY    28  20  70 NW12      29.77R WCI  18
ROMEOVILLE*    CLOUDY    28  20  71 N13       29.76R WCI  18
NORTHERLY ISL    N/A     30  19  63 N23         N/A  WCI  17
$$

LMZ740>746-140600-
SOUTHERN LAKE MICHIGAN

STATION/POSITION SKY/WX   TEMP    WIND        PRES    VSBY  WAVE
                          AIR SEA DIR/SP/G                  HT/PER
                          (F)     (DEG/KT/KT) (MB)    (MI)  (FT/S)
HARRISON CRIB              31     360/ 30/ 36   N/A
BURNHAM HARBOR             30     330/ 19/ 26   N/A
CALUMET HARBOR             30     340/ 23/ 29 1005.9R
BURNS HARBOR               31     350/ 24/ 36 1005.1R
MICHIGAN CITY              29     350/ 29/ 36   N/A
$$

ILZ025>027-034>036-040-047-049-050-058-095>099-140600-
WEST-CENTRAL ILLINOIS

CITY           SKY/WX    TMP DP  RH WIND       PRES   REMARKS
QUINCY         CLOUDY    34  23  64 NW21G37   29.87R WCI  22
GALESBURG*     CLOUDY    28  19  71 NW14      29.88R WCI  17
MACOMB*        CLOUDY    29  19  67 N21G29    29.88R WCI  16
JACKSONVILLE*  CLOUDY    34  23  64 NW15      29.84R WCI  24
PITTSFIELD*    CLOUDY    36  26  65 NW20G25   29.86R WCI  25
$$

ILZ028>032-037-038-041>044-048-051>054-059>061-140600-
CENTRAL ILLINOIS

CITY           SKY/WX    TMP DP  RH WIND       PRES   REMARKS
PONTIAC        CLOUDY    28  19  70 NW15      29.81R WCI  16
BLOOMINGTON    CLOUDY    28  18  66 N23G31    29.79R WCI  14
DECATUR        CLOUDY    32  22  66 NW22G31   29.80R WCI  19
PEORIA         CLOUDY    29  18  63 NW9G23    29.84R WCI  20
LACON*         CLOUDY    28  17  63 N15G23    29.84R WCI  16
LINCOLN*       CLOUDY    32  22  66 N12G20    29.82R WCI  23
SPRINGFIELD    CLOUDY    35  26  69 N13G31    29.82R WCI  26
TAYLORVILLE    CLOUDY    34  25  69 NW17G24   29.82R WCI  23
$$

ILZ033-039-045-046-055>057-062-063-140600-
EAST-CENTRAL ILLINOIS

CITY           SKY/WX    TMP DP  RH WIND       PRES   REMARKS
CHAMPAIGN      CLOUDY    30  19  63 NW23G37   29.77R WCI  17
DANVILLE*      PTCLDY    28  19  69 NW24      29.71R WCI  13
RANTOUL*       PTCLDY    30  20  68 NW17G25   29.76R WCI  18
MATTOON        CLOUDY    34  26  72 NW22G30   29.76R WCI  22
PARIS*         CLOUDY    32  24  72 NW20G32   29.77R WCI  20
$$

ILZ079-100>102-140600-
SOUTHWEST ILLINOIS

CITY           SKY/WX    TMP DP  RH WIND       PRES   REMARKS
ALTON          CLOUDY    38  25  61 NW13      29.84R WCI  30
CAHOKIA*       CLOUDY    41  25  53 NW20G33   29.85R
SPARTA*        MOCLDY    39  31  72 NW9       29.86R WCI  33
$$

ILZ064>066-069>071-074>076-080>082-084>086-088>090-092>094-140600-
SOUTH-CENTRAL ILLINOIS

CITY           SKY/WX    TMP DP  RH WIND       PRES   REMARKS
CARBONDALE     CLEAR     40  30  67 MISG      29.83R
CAIRO*         PTCLDY    35  29  79 W3        29.80R
EFFINGHAM*     CLOUDY    36  27  71 NW23G31   29.81R WCI  24
MARION         CLEAR     43  29  59 NW8G22    29.83R
MT. VERNON     CLOUDY    40  30  67 VRB7      29.82R
CENTRALIA*     CLOUDY    39  28  63 NW22G33   29.82R WCI  29
SALEM*         CLOUDY    39  26  58 NW21G33   29.82R WCI  29
METROPOLIS*    PTCLDY    41  29  62 NW7       29.81R
$$

ILZ067-068-072-073-078-083-087-091-140600-
SOUTHEAST ILLINOIS

CITY           SKY/WX    TMP DP  RH WIND       PRES   REMARKS
LAWRENCEVILLE  CLOUDY    38  27  64 NW25G36   29.78R WCI  27
FLORA*         CLOUDY    39  28  63 NW24G31   29.80R WCI  28
FAIRFIELD*     CLOUDY    40  28  63 NW6G18    29.80R
HARRISBURG*    CLEAR     42  31  65 NW10G24   29.81R
ROBINSON*      CLOUDY    36  27  70 NW21G32   29.78R WCI  24
CARMI*         CLOUDY    39  31  73 NW12      29.80R WCI  31
$$

ABBREVIATIONS USED IN REMARKS
   TC - TEMPERATURE IN CELSIUS
  WCI - WIND CHILL INDEX
   HX - HEAT INDEX
  VSB - VISIBILITY
$$





USA.gov is the U.S. government's official web portal to all federal, state and local government web resources and services.